Tracking 20083 objects as of 10-Dec-2019
HD Live streaming from Space Station
objects crossing your sky now

PSLV DEB

Track PSLV DEB now!
10-day predictions


NORAD ID: 27353
Int'l Code: 2001-049MA
Perigee: 522.1 km
Apogee: 552.6 km
Inclination: 97.7 °
Period: 95.2 minutes
Semi major axis: 6908 km
RCS: 0.0023 m2 (small)
Launch date: October 22, 2001
Source: India (IND)
Launch site: SRIHARIKOTA (SRI)

Note: This is SATELLITE DEBRIS
aabbcc
Your satellite tracking list
Your tracking list is empty




NASA's NSSDC Master Catalog

Two Line Element Set (TLE):
1 27353U 01049MA  19344.48151615  .00001158  00000-0  71167-4 0  9997
2 27353  97.6726 349.0918 0022051 282.6654  77.2111 15.11953094973697
Source of the keplerian elements: AFSPC